Location: Cella
(44.7333°N, 10.5667°E)
Time: 09:03:10
(UTC+00:00)

Cosmos 1777 Rocket - Pass Details

Date: 18 June 2021
Orbit: 757 x 776 km, 74.0° (Epoch: 28 July)

Event Time Altitude Azimuth Distance (km) Brightness Sun altitude
Rises 21:05:34 0° 353° (N) 3,259 8.5 -15.3°
Reaches altitude 10° 21:09:30 10° 21° (NNE) 2,330 7.0 -15.7°
Maximum altitude 21:11:46 13° 47° (NE) 2,147 6.5 -15.9°
Drops below altitude 10° 21:14:02 10° 73° (ENE) 2,328 6.4 -16.1°
Enters shadow 21:16:15 - 92° (E) 2,788 6.6 -16.3°
